This is the latest recevied weather packets stored in our database for station/object IW2NTF-3. If no packets are shown the sender has not sent any weather packets the latest 1 day(s).
| Time | Temp. | Humidity | Pressure | Rain* | Wind** | Luminosity | Snow |
|---|---|---|---|---|---|---|---|
| 1777998363 | 15° C | 82% | 1012.3 hPa | 0 mm | 0.45 m/s, 133° | 39 W/m² | - |
| 1777998303 | 15° C | 82% | 1012.3 hPa | 0 mm | 0.45 m/s, 134° | 40 W/m² | - |
| 1777998243 | 15° C | 82% | 1012.3 hPa | 0 mm | 0.45 m/s, 135° | 40 W/m² | - |
| 1777998183 | 15° C | 82% | 1012.3 hPa | 0 mm | 0.45 m/s, 134° | 42 W/m² | - |
| 1777998123 | 15° C | 82% | 1012.3 hPa | 0 mm | 0.45 m/s, 133° | 46 W/m² | - |
| 1777998063 | 15° C | 82% | 1012.3 hPa | 0 mm | 0.45 m/s, 133° | 47 W/m² | - |
| 1777998003 | 15° C | 82% | 1012.3 hPa | 0 mm | 0.45 m/s, 132° | 49 W/m² | - |
| 1777997943 | 15° C | 82% | 1012.3 hPa | 0 mm | 0.45 m/s, 131° | 51 W/m² | - |
| 1777997883 | 15° C | 82% | 1012.3 hPa | 0 mm | 0.45 m/s, 130° | 51 W/m² | - |
| 1777997823 | 15° C | 82% | 1012.3 hPa | 0 mm | 0.45 m/s, 126° | 53 W/m² | - |
| 1777997763 | 15° C | 82% | 1012.3 hPa | 0 mm | 0.45 m/s, 125° | 54 W/m² | - |
| 1777997703 | 15° C | 82% | 1012.3 hPa | 0 mm | 0.45 m/s, 126° | 56 W/m² | - |
| 1777997643 | 15.56° C | 82% | 1012.3 hPa | 0 mm | 0.45 m/s, 125° | 60 W/m² | - |
| 1777997583 | 15° C | 82% | 1012.3 hPa | 0 mm | 0.45 m/s, 126° | 63 W/m² | - |
| 1777997523 | 15.56° C | 82% | 1012.3 hPa | 0 mm | 0.45 m/s, 126° | 63 W/m² | - |
| 1777997463 | 15° C | 82% | 1012.3 hPa | 0 mm | 0.45 m/s, 125° | 63 W/m² | - |
| 1777997403 | 15° C | 82% | 1012.3 hPa | 0 mm | 0.45 m/s, 121° | 63 W/m² | - |
| 1777997343 | 15° C | 82% | 1012.3 hPa | 0 mm | 0.45 m/s, 121° | 63 W/m² | - |
| 1777997283 | 15° C | 82% | 1012.3 hPa | 0 mm | 0.45 m/s, 126° | 65 W/m² | - |
| 1777997223 | 15° C | 82% | 1012.3 hPa | 0 mm | 0.45 m/s, 133° | 72 W/m² | - |
| 1777997163 | 15° C | 82% | 1012.3 hPa | 0 mm | 0.45 m/s, 137° | 77 W/m² | - |
| 1777997103 | 15° C | 83% | 1012.3 hPa | 0 mm | 0.45 m/s, 138° | 83 W/m² | - |
| 1777997043 | 15.56° C | 83% | 1012.3 hPa | 0 mm | 0.45 m/s, 137° | 83 W/m² | - |
| 1777996983 | 15° C | 83% | 1012.3 hPa | 0 mm | 0.45 m/s, 139° | 81 W/m² | - |
| 1777996923 | 15° C | 83% | 1012.3 hPa | 0 mm | 0.45 m/s, 139° | 77 W/m² | - |
* Rain latest hour (hover to see other rain measurements)
** Current wind speed in m/s (hover to see current wind gust speed)